Vertical_Velocity
-9 -4 -10 -9 -16 -7 -1 -1 -0 1 -2 6 1 -6 -1 6 2 -3 4 10 3 -1 1 -0 -0 1 -2 -1 -2 0 -1 -0 1 -1 -1 -0 -2 1 -1 -1 -1 1 -1 -2 -2 -1 -1 1 2
1 -4 -5 -2 -9 -2 -1 -0 0 3 -2 2 -4 0 -7 4 0 1 -3 7 2 2 -2 1 0 -1 1 0 0 1 -0 -1 -1 -1 -2 0 -1 -1 -1 -2 -2 -2 -0 1 2 1 1 1 0
-1 -9 -8 -3 -1 -2 -2 -1 0 7 5 1 -1 -1 -1 3 4 -1 5 4 4 1 0 0 -1 0 3 2 2 1 -0 0 1 1 1 -1 -1 3 0 -0 -0 0 0 2 1 1 2 2 1
-4 -1 -4 -5 -1 -4 -3 -2 -0 2 6 -0 -0 -2 -3 8 -8 -4 1 1 -0 0 -0 0 -0 1 1 0 -0 2 2 2 -0 0 0 -1 1 2 0 2 -1 -0 0 -1 -2 -4 -4 -3 -1
-1 3 -2 -0 -1 0 1 -0 -0 0 1 3 1 3 0 3 1 -5 0 3 1 -3 -3 -1 -1 -1 0 1 0 2 3 1 -0 -0 -1 -2 -3 -3 -2 -1 -2 0 1 2 2 2 2 2 -3
0 3 -1 -0 -0 1 -0 -1 -2 -0 2 4 -6 -2 4 0 -3 -0 0 0 1 0 -1 -1 -1 -2 1 -0 -1 0 1 1 0 -0 -1 -2 -0 0 0 -1 -1 -2 -1 -0 0 1 2 2 3
-1 -1 -2 -1 -1 2 -2 1 -1 -2 -0 0 -5 -2 3 6 2 -1 1 -3 -2 -0 1 -2 -3 -3 -2 -2 -2 0 2 -0 -1 0 3 -0 -2 2 -0 1 -1 1 0 -1 -1 -1 -0 -1 1
1 -1 -1 -1 -1 -3 -2 2 1 -4 3 -2 -1 -2 -2 2 1 -2 -2 1 -0 -4 -1 -3 -1 -3 -4 -4 -2 -1 -0 -0 -0 -1 -2 -1 -0 3 3 1 1 3 -1 -0 -0 0 -0 0 2
7 -5 -1 -1 -1 -2 2 0 9 7 -9 6 3 -6 -8 -1 3 2 -1 -1 -0 -3 -8 -2 2 -1 -0 -1 -5 -2 -1 -1 -1 1 -0 -1 -2 -1 -0 -1 0 -3 -2 -3 -2 -0 0 2 -0
-2 -3 -5 -3 -1 -2 -3 -3 -2 -3 2 1 0 7 2 0 1 -3 -2 -2 -1 1 -1 -8 -5 0 1 0 -1 -0 -1 -0 -1 2 0 -1 -3 -3 -1 0 0 -1 1 2 -0 -3 -1 -1 -1
2 -3 -2 -2 -1 -0 1 1 2 -6 -1 -3 -14 -3 1 -1 -3 1 4 2 -2 3 4 2 -1 -5 -5 3 -2 -1 -1 -0 -2 -2 -1 -0 -0 1 0 -1 -1 -1 -0 -1 -1 -3 -4 -3 -1
-5 1 -1 0 2 -1 -1 -1 1 -2 -8 -2 -1 -4 -5 -3 -1 -0 -2 -3 -1 -3 0 3 8 4 -0 -6 -2 -1 -2 -1 -3 -2 0 -1 -2 -4 -6 -3 -3 -1 -1 -0 -1 -2 1 0 -2
-4 0 0 1 -0 2 -1 -2 -3 -2 6 1 2 3 -1 -2 3 4 4 5 -0 0 -0 -0 1 -0 0 3 -0 -1 -2 -0 -1 2 0 0 -1 -1 0 2 -2 -2 -1 -3 -2 -1 -2 -1 -1
1 -0 2 2 4 1 -4 0 -6 6 -3 3 0 -1 -0 -3 3 5 8 1 6 3 -0 -0 -2 -0 2 2 1 1 0 1 0 2 -0 -0 -1 -2 -1 -1 -3 -2 -2 -2 -4 -4 -3 -3 -1
-0 -4 0 1 -0 0 -0 1 -1 -2 8 -2 2 1 1 -2 6 -0 -1 -2 0 -0 2 -3 -3 -0 0 3 1 0 1 0 0 -1 -3 -0 1 -1 -1 0 -1 -3 -1 1 1 0 3 3 2
-1 -5 -1 -4 1 5 -5 -6 1 0 -4 1 1 -0 -1 0 -4 -0 0 0 -3 -1 -4 -2 -1 1 1 -1 -2 0 2 -0 1 2 -3 -2 -1 -1 0 -1 -2 -2 1 -3 -5 -4 -3 -3 -1
-3 -2 0 0 -0 -1 -6 -4 -1 6 3 1 1 1 -0 5 7 2 -3 -3 -2 -1 -5 -5 -7 -2 -3 -2 2 3 2 2 0 1 -2 -2 1 0 -1 -1 -2 0 -1 -3 -6 -6 -5 -4 -2
-2 0 0 -2 -7 1 2 -3 -0 1 1 -4 -2 -1 1 2 -6 -3 -2 0 -1 -2 -2 -0 -3 -3 -3 -0 0 2 1 0 -1 -0 1 -3 -1 1 -1 -2 1 -1 -3 -1 -1 -2 -5 -6 -2
-1 1 0 -3 -2 -4 -3 -0 -2 -1 10 3 2 0 1 -0 -3 4 -2 2 1 1 -0 1 -3 -4 -4 -3 0 1 -2 -1 -1 -1 -0 -1 -1 0 -1 -2 0 -2 -4 -3 -3 -3 -4 -6 -6
1 0 -2 -2 1 -2 0 -5 -1 0 -8 -11 -7 1 -3 7 3 4 3 2 0 -1 -1 -1 -1 -4 -3 -2 -1 1 -1 -1 1 2 1 0 -0 1 0 -1 -1 -3 -4 -1 -2 -4 -3 -3 -7
-0 -1 -0 -2 1 -1 -2 -2 2 -2 5 9 9 5 5 -3 -5 1 -1 -2 1 -2 -3 -2 -2 -2 -4 -2 0 1 5 3 -1 -1 -1 0 1 1 1 1 -2 -2 0 -0 -4 -5 -6 -4 2
0 -0 -0 -1 -3 -4 -5 -5 -1 -1 -1 3 1 -4 -3 -2 10 7 -0 -3 -4 1 3 2 2 1 1 -3 -1 -2 -3 -4 -4 -0 2 1 1 3 2 1 0 0 1 0 -2 -3 -6 -3 -3
-5 0 -1 -1 -0 -0 -1 -5 -9 -1 -1 2 1 5 8 8 -2 -8 -10 1 5 2 -2 2 2 2 1 -1 -1 -3 -3 5 5 3 0 2 3 2 0 -1 -0 1 -1 -2 -1 -2 -1 1 -0
-1 -1 -3 -2 -1 -4 -3 -6 -6 -1 -3 2 4 2 -1 -3 -3 8 22 7 2 4 2 1 0 -1 -0 0 3 -2 0 3 4 2 2 4 1 0 0 1 0 0 1 1 -3 -3 -0 -2 -2
-3 -5 -4 -6 -6 -7 -1 -3 -4 0 1 -2 0 6 4 1 5 2 -7 -4 1 -1 1 -0 -1 -3 -1 -1 0 2 0 1 -1 2 7 3 2 1 1 1 1 2 -0 -1 -0 -1 -1 -0 -1
-2 -7 -8 -4 -2 -4 -2 -1 -9 -1 1 2 2 1 1 -2 4 11 9 8 5 0 3 -2 -3 -0 1 4 0 10 7 1 -2 3 -2 -0 4 3 4 2 0 2 -1 -0 -1 -1 2 1 1
-3 -2 -9 -4 -0 -3 -3 2 -10 -0 2 2 2 1 3 2 2 0 0 3 4 7 1 0 -2 4 7 9 12 4 2 2 -2 -0 5 5 4 2 -2 -0 1 2 1 1 -0 0 1 -0 0
-7 -5 -10 -5 -4 -0 -3 -0 -4 1 2 2 2 1 1 3 1 -2 -1 1 0 3 8 10 10 7 7 8 8 6 3 3 1 -4 -2 6 1 2 4 3 3 1 0 -1 -1 1 1 0 1
-3 -1 -3 -9 -5 -5 -2 -8 -4 -5 -2 -1 2 3 3 4 -1 -3 -4 -3 0 6 7 9 8 3 5 6 5 4 3 2 4 10 12 3 5 5 5 2 -0 1 -0 -1 1 0 1 -0 -1
-3 -3 -3 -7 -4 -2 -4 -12 1 -2 -0 -2 2 2 1 -0 2 3 0 0 1 4 7 5 4 4 4 3 2 1 3 4 1 4 1 3 -1 0 -2 -1 -1 0 -2 -2 -2 -0 1 -1 -5
Height
1546 1544 1542 1539 1554 1562 1567 1560 1549 1551 1555 1559 1556 1558 1565 1567 1568 1581 1578 1580 1581 1582 1582 1581 1581 1580 1579 1579 1579 1579 1578 1577 1576 1576 1575 1575 1574 1573 1572 1572 1571 1570 1569 1569 1568 1567 1567 1566 1566
1546 1547 1544 1546 1566 1579 1569 1556 1555 1553 1556 1557 1558 1562 1564 1573 1572 1575 1579 1581 1582 1582 1582 1582 1581 1581 1580 1579 1579 1579 1579 1579 1578 1577 1576 1575 1574 1573 1573 1572 1571 1570 1570 1569 1568 1568 1567 1566 1566
1548 1549 1547 1559 1570 1578 1571 1558 1553 1556 1556 1557 1561 1564 1569 1575 1577 1578 1580 1581 1583 1583 1583 1582 1581 1581 1581 1580 1580 1580 1580 1579 1578 1577 1576 1575 1575 1574 1573 1572 1572 1571 1570 1569 1568 1567 1566 1566 1565
1549 1551 1556 1565 1569 1560 1557 1556 1553 1555 1556 1557 1561 1567 1573 1576 1577 1579 1580 1583 1583 1583 1583 1583 1582 1582 1582 1581 1581 1581 1580 1580 1579 1578 1577 1576 1575 1574 1573 1573 1572 1571 1570 1569 1568 1567 1566 1566 1565
1550 1551 1564 1567 1563 1557 1556 1555 1553 1553 1557 1559 1560 1571 1574 1576 1578 1581 1583 1583 1583 1583 1583 1583 1583 1582 1582 1582 1581 1581 1581 1580 1580 1579 1578 1577 1576 1575 1574 1573 1572 1572 1570 1569 1568 1567 1567 1566 1564
1550 1550 1561 1567 1562 1557 1557 1556 1554 1555 1559 1562 1564 1566 1575 1577 1578 1581 1583 1584 1583 1582 1582 1582 1582 1582 1581 1581 1581 1582 1582 1581 1581 1581 1580 1579 1578 1577 1576 1574 1573 1572 1571 1569 1569 1568 1567 1566 1564
1546 1548 1554 1556 1558 1558 1554 1555 1555 1557 1559 1562 1563 1569 1574 1576 1578 1581 1583 1583 1583 1582 1583 1582 1581 1582 1582 1582 1582 1583 1582 1582 1582 1582 1582 1580 1580 1579 1578 1577 1575 1573 1572 1571 1570 1569 1569 1568 1566
1543 1544 1553 1554 1559 1558 1550 1553 1554 1554 1558 1561 1563 1569 1575 1575 1578 1580 1582 1582 1581 1582 1583 1582 1582 1581 1582 1583 1583 1584 1583 1583 1583 1583 1583 1582 1582 1581 1580 1578 1577 1576 1574 1572 1571 1570 1569 1568 1567
1539 1550 1561 1548 1550 1548 1548 1551 1554 1555 1555 1560 1563 1562 1566 1575 1577 1578 1580 1581 1580 1580 1581 1584 1583 1582 1582 1582 1583 1584 1585 1585 1584 1584 1584 1584 1583 1582 1582 1580 1579 1577 1576 1575 1573 1572 1571 1570 1569
1533 1548 1548 1538 1537 1542 1545 1549 1552 1556 1558 1561 1562 1564 1568 1574 1578 1578 1577 1578 1579 1578 1578 1580 1583 1584 1583 1583 1584 1584 1585 1585 1586 1586 1586 1586 1585 1584 1584 1582 1581 1579 1578 1576 1575 1573 1572 1571 1570
1532 1540 1535 1534 1534 1538 1543 1550 1552 1555 1560 1558 1560 1565 1569 1572 1575 1578 1578 1578 1579 1582 1581 1580 1580 1581 1583 1585 1584 1585 1586 1587 1587 1587 1587 1587 1586 1586 1584 1583 1582 1581 1581 1579 1577 1575 1573 1572 1571
1536 1535 1534 1535 1535 1539 1542 1548 1549 1551 1553 1554 1557 1561 1566 1570 1572 1574 1576 1577 1578 1580 1583 1583 1583 1581 1582 1584 1586 1586 1586 1587 1588 1588 1588 1587 1587 1586 1585 1585 1584 1583 1581 1580 1579 1577 1576 1575 1573
1534 1535 1535 1536 1538 1540 1543 1545 1548 1550 1551 1554 1559 1563 1565 1568 1570 1573 1574 1575 1577 1580 1582 1584 1584 1585 1585 1585 1586 1587 1587 1589 1589 1590 1589 1588 1588 1587 1587 1586 1585 1584 1583 1582 1580 1579 1578 1577 1574
1532 1535 1536 1539 1540 1542 1545 1546 1547 1552 1550 1556 1559 1562 1564 1565 1568 1571 1574 1578 1579 1579 1582 1583 1584 1586 1587 1587 1587 1588 1589 1590 1591 1591 1590 1590 1590 1588 1588 1587 1586 1585 1584 1583 1582 1581 1579 1578 1576
1534 1539 1538 1539 1541 1544 1545 1549 1549 1548 1551 1553 1557 1560 1563 1567 1569 1571 1574 1578 1580 1581 1583 1583 1585 1587 1589 1589 1589 1590 1590 1591 1591 1592 1591 1591 1591 1590 1589 1588 1587 1586 1586 1585 1583 1582 1581 1580 1578
1534 1539 1550 1539 1539 1542 1545 1557 1547 1548 1550 1553 1554 1558 1562 1564 1568 1571 1574 1575 1578 1579 1582 1584 1585 1587 1588 1589 1591 1591 1592 1592 1593 1593 1592 1592 1592 1591 1590 1590 1588 1588 1587 1585 1584 1583 1581 1580 1578
1542 1553 1549 1542 1537 1537 1542 1549 1543 1544 1545 1548 1552 1555 1558 1562 1564 1567 1570 1572 1574 1577 1579 1581 1584 1585 1588 1590 1592 1592 1593 1593 1594 1594 1593 1593 1593 1593 1592 1591 1590 1589 1588 1587 1585 1583 1581 1579 1578
1550 1549 1540 1543 1536 1535 1541 1541 1541 1542 1542 1543 1549 1552 1556 1557 1560 1563 1566 1569 1572 1574 1576 1579 1581 1584 1586 1589 1591 1593 1593 1593 1594 1595 1595 1594 1594 1594 1592 1591 1591 1589 1588 1587 1585 1583 1581 1578 1576
1533 1536 1538 1530 1526 1531 1535 1536 1536 1539 1541 1542 1544 1548 1552 1555 1559 1561 1564 1566 1569 1572 1574 1577 1579 1582 1584 1587 1589 1591 1592 1593 1594 1594 1595 1595 1594 1593 1592 1592 1591 1589 1588 1586 1584 1582 1579 1577 1574
1527 1533 1535 1525 1522 1528 1533 1533 1533 1536 1533 1531 1535 1542 1548 1553 1556 1558 1560 1562 1564 1567 1571 1574 1576 1579 1582 1586 1589 1591 1592 1593 1595 1595 1595 1595 1594 1593 1592 1591 1590 1588 1587 1585 1583 1580 1578 1575 1572
1532 1532 1530 1530 1527 1526 1530 1536 1534 1533 1529 1531 1535 1539 1544 1547 1550 1553 1556 1558 1561 1563 1566 1570 1573 1576 1579 1583 1586 1589 1591 1592 1593 1594 1594 1593 1593 1593 1592 1590 1588 1587 1585 1583 1581 1579 1577 1574 1571
1535 1526 1525 1529 1537 1549 1528 1554 1531 1529 1519 1528 1533 1539 1539 1543 1547 1549 1552 1555 1556 1560 1565 1569 1572 1574 1577 1580 1584 1587 1589 1589 1591 1592 1592 1592 1592 1591 1590 1589 1588 1586 1583 1581 1579 1577 1575 1572 1570
1528 1523 1523 1527 1536 1536 1533 1546 1533 1525 1527 1527 1531 1532 1536 1538 1540 1544 1546 1548 1554 1559 1562 1567 1571 1573 1576 1578 1582 1584 1586 1589 1590 1590 1591 1591 1591 1590 1589 1587 1586 1583 1581 1578 1577 1575 1573 1570 1568
1520 1524 1528 1532 1541 1556 1535 1543 1542 1534 1529 1529 1531 1534 1534 1535 1538 1541 1545 1549 1553 1558 1562 1566 1569 1572 1575 1577 1580 1582 1585 1587 1588 1589 1589 1590 1589 1588 1587 1585 1583 1581 1579 1576 1574 1572 1570 1568 1566
1524 1539 1568 1561 1569 1562 1529 1541 1538 1530 1528 1529 1531 1532 1530 1529 1531 1537 1541 1545 1550 1555 1559 1564 1567 1569 1572 1575 1578 1580 1583 1585 1586 1587 1588 1588 1587 1585 1585 1583 1581 1579 1576 1574 1571 1570 1568 1565 1562
1529 1536 1564 1563 1568 1554 1528 1545 1543 1531 1531 1531 1531 1531 1530 1530 1531 1536 1541 1544 1549 1553 1557 1561 1564 1567 1569 1573 1577 1580 1581 1582 1583 1585 1586 1586 1586 1585 1582 1581 1579 1576 1573 1571 1568 1566 1564 1561 1559
1527 1537 1530 1547 1551 1555 1542 1540 1539 1537 1534 1534 1535 1535 1535 1533 1536 1539 1542 1545 1548 1552 1555 1557 1562 1566 1569 1574 1577 1578 1579 1580 1582 1584 1584 1584 1583 1581 1580 1578 1576 1573 1571 1568 1566 1564 1562 1558 1555
1522 1523 1547 1561 1568 1562 1548 1543 1548 1542 1536 1535 1535 1537 1539 1539 1540 1542 1543 1545 1547 1551 1556 1560 1564 1568 1571 1574 1576 1577 1578 1579 1581 1582 1582 1580 1579 1579 1577 1576 1573 1570 1568 1566 1564 1561 1558 1555 1551
1528 1531 1536 1543 1554 1567 1565 1548 1526 1528 1530 1533 1535 1536 1537 1541 1543 1542 1544 1545 1545 1547 1552 1557 1563 1567 1569 1572 1574 1576 1577 1579 1579 1578 1578 1577 1576 1575 1574 1572 1570 1568 1565 1563 1560 1557 1554 1550 1547
1517 1525 1530 1559 1548 1553 1556 1550 1527 1523 1527 1532 1536 1537 1538 1540 1542 1541 1542 1543 1543 1544 1548 1554 1560 1564 1567 1570 1572 1575 1577 1578 1578 1578 1576 1575 1574 1572 1571 1569 1567 1564 1562 1560 1557 1554 1551 1547 1543